Regional Weather Roundup
Issued by NWS

Home | Current Version | Previous Version | Graphics & Text | Print | Product List | Glossary On
Versions: 1 2 3 4 5 6 7 8 9 10 11 12 13 14 15 16 17 18 19 20 21 22 23 24 25 26 27 28 29 30 31 32 33 34 35 36 37 38 39 40 41 42 43 44 45 46 47 48 49 50
334
ASUS45 KCYS 122310
RWRWY

WYOMING REGIONAL WEATHER ROUNDUP
NATIONAL WEATHER SERVICE CHEYENNE WY
400 PM MST TUE DEC 12 2017

NOTE:  "FAIR" INDICATES FEW OR NO CLOUDS BELOW 12,000 FEET
WITH NO SIGNIFICANT WEATHER AND/OR OBSTRUCTIONS TO VISIBILITY.

WYZ001-130000-
YELLOWSTONE NATIONAL PARK

CITY           SKY/WX    TMP DP  RH WIND       PRES   REMARKS
LK YELLOWSTONE   N/A     27  17  66 W3        30.39S
W YELLOWSTONE  NOT AVBL

$$
WYZ002>013-054>058-071-098>099-130000-
NORTHERN WYOMING

CITY           SKY/WX    TMP DP  RH WIND       PRES   REMARKS
JACKSON        FAIR      35  15  44 S3        30.38F
CODY           FAIR      60  -4   7 W14G25    30.13S
GREYBULL       FAIR      47  20  34 CALM      30.12F
WORLAND        FAIR      47  25  42 CALM      30.13F
SHERIDAN       FAIR      53  17  24 NW10      30.01F
BUFFALO        FAIR      62  -8   6 NW6       30.06F
GILLETTE       FAIR      53  21  28 W12       30.01F
HULETT         FAIR      50  21  32 SW10      30.00F
NEWCASTLE      FAIR      52  18  25 NW5       30.04F

$$
WYZ014>020-022>026-101>103-130000-
CENTRAL WYOMING

CITY           SKY/WX    TMP DP  RH WIND       PRES   REMARKS
BIG PINEY      FAIR      53 -11   7 N12       30.35F
PINEDALE       FAIR      46  -4  12 NW13      30.35F
DUBOIS         FAIR      45  -4  13 NW14      30.28F
LANDER         FAIR      41  25  53 CALM      30.20F
RIVERTON       FAIR      36  20  52 CALM      30.21F
CASPER         FAIR      45  19  35 SW21G30   30.17F
DOUGLAS        FAIR      52  23  32 NW7       30.11F

$$
WYZ021-027>030-104>119-130000-
SOUTHERN WYOMING

CITY           SKY/WX    TMP DP  RH WIND       PRES   REMARKS
EVANSTON       FAIR      51  11  20 SW9       30.40F
FORT BRIDGER   FAIR      54   4  13 W14       30.41F
ROCK SPRINGS   FAIR      48   6  18 W7        30.34F
DIXON          FAIR      40  20  44 CALM      30.38F
RAWLINS        FAIR      45  17  32 W10G23    30.28F
SARATOGA       FAIR      39  27  60 SE6       30.33F WCI  35
LARAMIE        FAIR      48   8  19 W21       30.25F
CHEYENNE       FAIR      57  10  15 NW8       30.18F
TORRINGTON     FAIR      59  16  18 W14       30.06F
PINE BLUFFS    FAIR      57   9  14 W20       30.14F

$$




USA.gov is the U.S. government's official web portal to all federal, state and local government web resources and services.